EJA200 KX58-K9A0

Flight info

Callsign EJA200
Flight time 1h 20m
Altitude 36000
Route DCT
Aircraft CL60/M-SBDE1E2E3FGHIJ1J4J5J7M3RWXYZ/LB1V1D1

Departure

Time 2026-01-25 16:30
Airport Indiantown Airport (KX58)

Arrival

Time 2026-01-25 17:51
Airport Lumpkin County Wimpys Airport (K9A0)
Time Latitude Longitude Altitude Speed Heading
2026-01-25 16:08 27.03183 -80.43559 30 ft 0 kts 352°
2026-01-25 16:26 27.03390 -80.43674 30 ft 21 kts 313°
2026-01-25 16:26 27.03492 -80.43794 30 ft 21 kts 313°
2026-01-25 16:26 27.03709 -80.44041 30 ft 22 kts 316°
2026-01-25 16:27 27.03915 -80.44272 30 ft 16 kts 314°
2026-01-25 16:27 27.03976 -80.44342 30 ft 12 kts 315°
2026-01-25 16:28 27.04282 -80.44694 27 ft 6 kts 276°
2026-01-25 16:28 27.04263 -80.44698 27 ft 0 kts 134°
2026-01-25 16:29 27.03755 -80.44096 31 ft 132 kts 134°
2026-01-25 16:30 27.02186 -80.42194 1145 ft 191 kts 131°
2026-01-25 16:30 27.01625 -80.40726 1831 ft 227 kts 97°
2026-01-25 16:30 27.03295 -80.37581 3730 ft 273 kts 30°
2026-01-25 16:31 27.07132 -80.37255 5748 ft 291 kts 353°
2026-01-25 16:31 27.11142 -80.37736 7934 ft 295 kts 353°
2026-01-25 16:32 27.13186 -80.37966 9025 ft 296 kts 353°
2026-01-25 16:33 27.22193 -80.38937 10499 ft 365 kts 353°
2026-01-25 16:33 27.27253 -80.39497 10495 ft 361 kts 353°
2026-01-25 16:34 27.32244 -80.40045 10501 ft 361 kts 353°
2026-01-25 16:34 27.34753 -80.40325 10531 ft 368 kts 353°
2026-01-25 16:34 27.39893 -80.40889 12262 ft 372 kts 352°
2026-01-25 16:35 27.44797 -80.42508 14082 ft 369 kts 335°
2026-01-25 16:35 27.49537 -80.44726 15619 ft 376 kts 335°
2026-01-25 16:36 27.56842 -80.48138 17687 ft 388 kts 334°
2026-01-25 16:36 27.59379 -80.49325 17954 ft 392 kts 334°
2026-01-25 16:37 27.66908 -80.52842 18098 ft 386 kts 334°
2026-01-25 16:38 27.71890 -80.55173 18126 ft 387 kts 334°
2026-01-25 16:38 27.74379 -80.56338 18126 ft 387 kts 334°
2026-01-25 16:38 27.79336 -80.58661 18122 ft 387 kts 334°
2026-01-25 16:39 27.84362 -80.61021 18386 ft 399 kts 334°
2026-01-25 16:39 27.89459 -80.63368 20012 ft 396 kts 336°
2026-01-25 16:40 27.97412 -80.65986 22070 ft 398 kts 338°
2026-01-25 16:41 28.02737 -80.67712 23211 ft 403 kts 338°
2026-01-25 16:41 28.08141 -80.69462 24225 ft 410 kts 338°
2026-01-25 16:41 28.10903 -80.70361 24718 ft 413 kts 338°
2026-01-25 16:42 28.22114 -80.74001 26659 ft 423 kts 338°
2026-01-25 16:45 28.48226 -80.82503 29925 ft 444 kts 337°
2026-01-25 16:46 28.69066 -80.89323 32222 ft 440 kts 336°
2026-01-25 16:49 28.95177 -80.97913 34645 ft 435 kts 335°
2026-01-25 16:51 29.18597 -81.05658 35129 ft 443 kts 335°
2026-01-25 16:53 29.42413 -81.13566 35114 ft 446 kts 335°
2026-01-25 16:54 29.63283 -81.20526 35146 ft 446 kts 335°
2026-01-25 16:57 29.90069 -81.29504 35139 ft 446 kts 335°
2026-01-25 16:58 30.10848 -81.36526 35122 ft 442 kts 332°
2026-01-25 17:01 30.33048 -81.53080 35111 ft 421 kts 317°
2026-01-25 17:02 30.51232 -81.64803 35102 ft 434 kts 325°
2026-01-25 17:04 30.73000 -81.76882 35069 ft 434 kts 324°
2026-01-25 17:06 30.94809 -81.89058 35037 ft 433 kts 323°
2026-01-25 17:09 31.19343 -82.02838 35014 ft 436 kts 323°
2026-01-25 17:10 31.38417 -82.13609 35030 ft 436 kts 323°
2026-01-25 17:13 31.62965 -82.27539 35114 ft 436 kts 323°
2026-01-25 17:14 31.82056 -82.38432 35111 ft 437 kts 323°
2026-01-25 17:17 32.06618 -82.52511 35047 ft 437 kts 323°
2026-01-25 17:18 32.25721 -82.63529 35003 ft 438 kts 323°
2026-01-25 17:21 32.50307 -82.77782 35057 ft 438 kts 322°
2026-01-25 17:22 32.69622 -82.89044 35066 ft 446 kts 322°
2026-01-25 17:25 32.94645 -83.03708 34979 ft 447 kts 321°
2026-01-25 17:26 33.14123 -83.15187 35088 ft 448 kts 321°
2026-01-25 17:29 33.38985 -83.29909 30861 ft 434 kts 322°
2026-01-25 17:30 33.57327 -83.40834 26546 ft 411 kts 322°
2026-01-25 17:31 33.67471 -83.46905 24370 ft 400 kts 323°
2026-01-25 17:32 33.74952 -83.51406 23681 ft 406 kts 323°
2026-01-25 17:33 33.79928 -83.54387 22691 ft 400 kts 323°
2026-01-25 17:33 33.82423 -83.55880 22172 ft 398 kts 323°
2026-01-25 17:33 33.87345 -83.58852 20884 ft 398 kts 323°
2026-01-25 17:34 33.92268 -83.61821 19415 ft 399 kts 323°
2026-01-25 17:34 33.97218 -83.64803 17909 ft 400 kts 323°
2026-01-25 17:35 34.02179 -83.67806 16382 ft 400 kts 322°
2026-01-25 17:35 34.07068 -83.70753 15323 ft 385 kts 322°
2026-01-25 17:36 34.13956 -83.74912 15117 ft 373 kts 321°
2026-01-25 17:37 34.18573 -83.77730 14946 ft 370 kts 322°
2026-01-25 17:37 34.20889 -83.79132 15046 ft 371 kts 321°
2026-01-25 17:37 34.25413 -83.81871 14203 ft 359 kts 321°
2026-01-25 17:38 34.29854 -83.84584 12530 ft 351 kts 321°
2026-01-25 17:38 34.34072 -83.87120 11457 ft 331 kts 320°
2026-01-25 17:39 34.38043 -83.89545 10591 ft 310 kts 320°
2026-01-25 17:39 34.41813 -83.91850 9442 ft 304 kts 319°
2026-01-25 17:40 34.47438 -83.95303 7583 ft 301 kts 320°
2026-01-25 17:40 34.49318 -83.96458 6836 ft 304 kts 320°
2026-01-25 17:41 34.52920 -83.98642 6455 ft 268 kts 320°
2026-01-25 17:41 34.56043 -84.00548 6525 ft 247 kts 316°
2026-01-25 17:42 34.59095 -84.02423 6295 ft 237 kts 315°
2026-01-25 17:42 34.61463 -84.04762 5192 ft 205 kts 282°
2026-01-25 17:43 34.62842 -84.07674 4453 ft 204 kts 288°
2026-01-25 17:43 34.64583 -84.10610 3189 ft 225 kts 293°
2026-01-25 17:44 34.65698 -84.11884 3079 ft 218 kts 323°
2026-01-25 17:44 34.69870 -84.14088 3503 ft 229 kts 360°
2026-01-25 17:45 34.73085 -84.11041 3342 ft 184 kts 90°
2026-01-25 17:45 34.73092 -84.09521 2969 ft 172 kts 114°
2026-01-25 17:46 34.71600 -84.07961 3005 ft 150 kts 172°
2026-01-25 17:46 34.69557 -84.07466 2944 ft 145 kts 163°
2026-01-25 17:47 34.67956 -84.06770 2794 ft 113 kts 163°
2026-01-25 17:47 34.66296 -84.06140 3126 ft 128 kts 168°
2026-01-25 17:48 34.63854 -84.05017 3370 ft 116 kts 161°
2026-01-25 17:48 34.63099 -84.04560 3125 ft 130 kts 158°
2026-01-25 17:49 34.61470 -84.03713 2204 ft 131 kts 162°
2026-01-25 17:49 34.59698 -84.02756 1863 ft 129 kts 144°
2026-01-25 17:50 34.58158 -84.01922 1312 ft 1 kts 154°
2026-01-25 17:50 34.58157 -84.01921 1311 ft 0 kts 155°